[Iaude] MPEC A133: 2024 AJ3 [a=1.30,e=0.50,i=24.7,H=20.0]

mpec at marsden.cfa.harvard.edu mpec at marsden.cfa.harvard.edu
Thu Jan 11 17:51:50 EST 2024


M.P.E.C. 2024-A133                             Issued 2024 January 11, 22:49 UT

     The Minor Planet Electronic Circulars contain information on unusual
         minor planets, routine data on comets and natural satellites,
         and occasional editorial announcements.  They are published
    on behalf of Division F of the International Astronomical Union by the
          Minor Planet Center, Smithsonian Astrophysical Observatory,
                          Cambridge, MA 02138, U.S.A.
			  
             Prepared using the Tamkin Foundation Computer Network

                              MPC at CFA.HARVARD.EDU
            URL https://www.minorplanetcenter.net/    ISSN 1523-6714

                                    2024 AJ3                                    


Observations:
     K24A03J  C2023 12 25.20562800 41 31.303+03 52 48.92         20.89GVEA133F51
     K24A03J  C2023 12 25.20900600 41 32.102+03 53 03.91         20.85GVEA133F51
     K24A03J*1C2024 01 10.09358901 35 14.266+18 25 09.26         21.04GVEA133G96
     K24A03J 1C2024 01 10.09942201 35 15.212+18 25 23.30         21.14GVEA133G96
     K24A03J 1C2024 01 10.10525301 35 16.246+18 25 36.77         20.96GVEA133G96
     K24A03J 1C2024 01 10.11108801 35 17.257+18 25 50.70         21.19GVEA133G96
     K24A03J KC2024 01 10.18292501 35 29.530+18 28 40.80         21.57GVEA133V06
     K24A03J KC2024 01 10.18668701 35 30.180+18 28 49.90         21.55GVEA133V06
     K24A03J KC2024 01 10.19044801 35 30.860+18 28 57.80         22.05GVEA133V06
     K24A03J  C2024 01 11.05413901 38 01.747+19 02 29.44         21.0 GVEA133H01
     K24A03J  C2024 01 11.05736201 38 02.281+19 02 36.95         20.9 GVEA133H01
     K24A03J  C2024 01 11.06928001 38 04.282+19 03 04.13         21.0 GVEA133H01
     K24A03J  C2024 01 11.07472501 38 05.209+19 03 16.74         21.0 GVEA133H01
     K24A03J KB2024 01 11.70754 01 39 54.45 +19 27 06.8                ZEA133106
     K24A03J KB2024 01 11.71655 01 39 55.93 +19 27 27.4          20.6 RZEA133106
     K24A03J KB2024 01 11.72556 01 39 57.47 +19 27 47.0          21.4 RZEA133106
     K24A03J KB2024 01 11.73478 01 39 59.00 +19 28 08.3          20.8 RZEA133106
     K24A03J KC2024 01 11.86423601 40 20.87 +19 32 55.6                VEA133587
     K24A03J KC2024 01 11.86687201 40 21.29 +19 33 02.0                VEA133587
     K24A03J KC2024 01 11.86951001 40 21.75 +19 33 07.5          21.1 GVEA133587

Observer details:
106 Crni Vrh.  Observer J. Vales.  0.60-m f/3.3 reflector + CMO.
587 Sormano.  Observers F. Manca, A. Testa.  Measurer F. Manca.  0.5-m f/6.8
    reflector + CCD.
F51 Pan-STARRS 1, Haleakala.  Observers J. Herman, T. Lowe, P. Minguez, A.
    Schultz, I. Smith.  Measurers K. Chambers, T. de Boer, J. Fairlamb, H.
    Gao, M. Huber, C.-C. Lin, E. Magnier, Y. Ramanjooloo, R. Wainscoat, R.
    Weryk.  1.8-m Ritchey-Chretien + CCD.
G96 Mt. Lemmon Survey.  Observer J. K. Hogan.  Measurers T. Beuden, V. F.
    Carvajal, D. Fay, J. B. Fazekas, D. C. Fuls, A. R. Gibbs, A. D. Grauer, H.
    Groeller, J. K. Hogan, R. A. Kowalski, S. M. Larson, G. J. Leonard, D.
    Rankin, R. L. Seaman, F. C. Shelly, K. W. Wierzchos.  1.5-m reflector +
    10K CCD.
H01 Magdalena Ridge Observatory, Socorro.  Observers W. H. Ryan, E. V. Ryan.
    Measurer W. H. Ryan.  2.4-m f/8.9 Ritchey-Chretien + CCD.
V06 Catalina Sky Survey-Kuiper.  Observer K. W. Wierzchos.  Measurers T.
    Beuden, V. F. Carvajal, D. Fay, J. B. Fazekas, D. C. Fuls, A. R. Gibbs, A.
    D. Grauer, H. Groeller, J. K. Hogan, R. A. Kowalski, S. M. Larson, G. J.
    Leonard, D. Rankin, R. L. Seaman, F. C. Shelly, K. W. Wierzchos.  1.55-m
    reflector + 1K CCD.

Orbital elements:
2024 AJ3                                                 Earth MOID = 0.0975 AU
Epoch 2023 Sept. 13.0 TT = JDT 2460200.5                Veres                   
M 340.36982              (2000.0)            P               Q                  
n   0.66519993     Peri.  251.47551     +0.69236909     +0.60719929             
a   1.2996745      Node    69.15957     -0.39640897     +0.77148481             
e   0.5000128      Incl.   24.65002     -0.60289715     +0.19005317             
P   1.48           H   20.00          G   0.15           U   9                  
Residuals in seconds of arc
231225 F51  0.0   0.0     240110 V06  0.2+  0.7+    240111 106  0.3-  0.4+
231225 F51  0.0   0.1-    240110 V06  0.7+  0.2-    240111 106  0.1+  0.2-
240110 G96  0.0   0.1-    240111 H01  0.1+  0.2-    240111 106  0.2-  0.5+
240110 G96  0.7-  0.1+    240111 H01  0.1-  0.1-    240111 587  0.8+  0.0
240110 G96  0.1-  0.2-    240111 H01  0.2-  0.2-    240111 587  0.4+  0.6+
240110 G96  0.1+  0.1-    240111 H01  0.0   0.0     240111 587  0.6+  0.2+
240110 V06  0.1+  0.5+    240111 106  0.1+  0.0

Ephemeris:
2024 AJ3                 a,e,i = 1.30, 0.50, 25                  q = 0.6498
Date    TT    R. A. (2000) Decl.     Delta      r    Elong.  Phase     V
2023 12 12    23 34 39.5 -17 04 08   0.3721  1.0407    88.0    71.0    20.4
...
2023 12 27    00 48 35.0 +06 01 38   0.4951  1.1675    98.9    56.3    20.9
...
2024 01 04    01 16 35.8 +13 53 52   0.5896  1.2321   100.1    51.8    21.2
...
2024 01 10    01 34 57.8 +18 21 28   0.6679  1.2788    99.7    49.3    21.5
2024 01 11    01 37 52.2 +19 00 27   0.6815  1.2865    99.6    48.9    21.5
2024 01 12    01 40 44.4 +19 38 02   0.6951  1.2941    99.4    48.6    21.6
...
2024 01 18    01 57 18.7 +22 57 37   0.7790  1.3387    98.2    46.7    21.9
...
2024 01 26    02 18 08.7 +26 28 54   0.8952  1.3958    95.8    44.6    22.2
...
2024 02 10    02 55 11.1 +31 12 59   1.1209  1.4948    90.1    41.3    22.7

M. P. C. Staff               (C) Copyright 2024 MPC           M.P.E.C. 2024-A133





More information about the Iaude mailing list